TimeEDT,TemperatureF,Dew PointF,Humidity,Sea Level PressureIn,VisibilityMPH,Wind Direction,Wind SpeedMPH,Gust SpeedMPH,PrecipitationIn,Events,Conditions,WindDirDegrees,DateUTC
12:51 AM,37.0,33.1,86,30.18,8.0,SW,4.6,-,N/A,,Partly Cloudy,220,2012-10-08 04:51:00
1:51 AM,37.0,33.1,86,30.18,8.0,SSW,4.6,-,N/A,,Clear,210,2012-10-08 05:51:00
2:51 AM,36.0,32.0,86,30.21,7.0,SSW,5.8,-,N/A,,Clear,210,2012-10-08 06:51:00
3:51 AM,37.4,33.8,87,30.18,6.0,Calm,Calm,-,N/A,,Clear,0,2012-10-08 07:51:00
4:51 AM,34.0,30.9,89,30.22,5.0,SSW,3.5,-,N/A,,Partly Cloudy,200,2012-10-08 08:51:00
5:51 AM,35.1,30.9,85,30.22,5.0,Calm,Calm,-,N/A,,Scattered Clouds,0,2012-10-08 09:51:00
6:51 AM,33.1,30.0,89,30.25,6.0,South,4.6,-,N/A,,Scattered Clouds,190,2012-10-08 10:51:00
7:51 AM,33.1,30.0,89,30.25,6.0,South,4.6,-,N/A,,Scattered Clouds,180,2012-10-08 11:51:00
8:51 AM,36.0,32.0,86,30.25,5.0,Calm,Calm,-,N/A,,Scattered Clouds,0,2012-10-08 12:51:00
9:51 AM,41.0,35.1,79,30.26,6.0,SW,3.5,-,N/A,,Haze,220,2012-10-08 13:51:00
10:51 AM,44.1,36.0,73,30.27,7.0,Calm,Calm,-,N/A,,Mostly Cloudy,0,2012-10-08 14:51:00
11:51 AM,46.9,32.0,56,30.26,8.0,WNW,3.5,-,N/A,,Mostly Cloudy,290,2012-10-08 15:51:00
12:51 PM,48.9,30.9,50,30.26,8.0,South,6.9,-,N/A,,Mostly Cloudy,190,2012-10-08 16:51:00
1:51 PM,48.0,30.9,52,30.23,8.0,WSW,6.9,-,N/A,,Mostly Cloudy,240,2012-10-08 17:51:00
2:51 PM,48.0,32.0,54,30.22,6.0,South,10.4,-,N/A,,Haze,190,2012-10-08 18:51:00
3:51 PM,48.9,30.9,50,30.22,8.0,SSW,9.2,16.1,N/A,,Mostly Cloudy,210,2012-10-08 19:51:00
4:51 PM,48.9,32.0,52,30.21,7.0,SSW,6.9,-,N/A,,Mostly Cloudy,200,2012-10-08 20:51:00
5:51 PM,48.9,33.1,54,30.20,8.0,South,9.2,-,N/A,,Mostly Cloudy,180,2012-10-08 21:51:00
6:51 PM,46.0,34.0,63,30.20,8.0,South,4.6,-,N/A,,Mostly Cloudy,190,2012-10-08 22:51:00
7:51 PM,44.6,33.8,66,30.18,8.0,South,4.6,-,N/A,,Mostly Cloudy,190,2012-10-08 23:51:00
8:51 PM,43.0,33.1,68,30.21,8.0,SSE,6.9,-,N/A,,Mostly Cloudy,160,2012-10-09 00:51:00
9:51 PM,41.0,34.0,76,30.21,8.0,South,6.9,-,N/A,,Mostly Cloudy,170,2012-10-09 01:51:00
10:51 PM,39.0,33.1,79,30.21,7.0,South,4.6,-,N/A,,Scattered Clouds,170,2012-10-09 02:51:00
11:51 PM,39.0,32.0,76,30.21,8.0,SSE,4.6,-,N/A,,Clear,160,2012-10-09 03:51:00